Location: ??????
(55.6500°N, 37.8000°E)
Time: 14:14:39
(UTC+00:00)

Cosmos 2237 Rocket - Pass Details

Date: 14 April 2024
Orbit: 833 x 851 km, 71.0° (Epoch: 17 May)

Event Time Altitude Azimuth Distance (km) Brightness Sun altitude
Exits shadow 01:29:39 - 213° (SSW) 2,766 4.3 -8.1°
Reaches altitude 10° 01:30:27 10° 213° (SSW) 2,460 4.1 -8.0°
Maximum altitude 01:36:07 88° 302° (WNW) 855 2.3 -7.3°
Drops below altitude 10° 01:41:51 10° 34° (NE) 2,486 5.8 -6.6°
Sets 01:44:19 0° 35° (NE) 3,427 6.6 -6.2°
